Location: Newark
(29.4733°N, 82.6067°W)
Time: 03:48:52
(UTC+00:00)

X-37B - Pass Details

Date: 19 September 2021
Orbit: 385 x 389 km, 45.0° (Epoch: 17 October)

Event Time Altitude Azimuth Distance (km) Brightness Sun altitude
Exits shadow 09:13:59 15° 107° (ESE) 1,158 3.6 -27.2°
Drops below altitude 10° 09:15:00 10° 90° (E) 1,406 4.3 -27.0°
Sets 09:17:31 0° 70° (ENE) 2,264 5.8 -26.5°
